Location: Duac?
(36.9744°N, 30.6500°E)
Time: 16:15:39
(UTC+00:00)

Cosmos 2279 Rocket - Pass Details

Date: 05 August 2024
Orbit: 962 x 978 km, 82.9° (Epoch: 11 September)

Event Time Altitude Azimuth Distance (km) Brightness Sun altitude
Exits shadow 23:18:19 56° 61° (ENE) 1,148 4.4 -33.6°
Drops below altitude 10° 23:23:43 10° 14° (NNE) 2,735 7.2 -33.2°
Sets 23:26:16 0° 11° (NNE) 3,687 8.1 -33.0°
